| time (UTC) | temp C | wind direction | speed KPH | gust KPH | rain 1hr cm | rain 24hr cm | rain mn cm | humidity % | barometer mb |
| 20260904171029 | 35 | 5 | 0.0 | 1.6 | 0.00 | 0.00 | 0.00 | 55 | 1014.0 |
| 20260904161016 | 35 | 5 | 3.2 | 3.2 | 0.00 | 0.00 | 0.00 | 55 | 1014.5 |
| 20260904151030 | 35 | 209 | 0.0 | 0.0 | 0.00 | 0.00 | 0.00 | 62 | 1014.8 |
| 20260904141028 | 32 | 219 | 0.0 | 0.0 | 0.00 | 0.00 | 0.00 | 66 | 1014.5 |
| 20260904131020 | 30 | 219 | 0.0 | 1.6 | 0.00 | 0.00 | 0.00 | 71 | 1014.4 |
| 20260904121038 | 27 | 200 | 0.0 | 0.0 | 0.00 | 0.00 | 0.00 | 80 | 1014.6 |
| 20260904111049 | 24 | 124 | 0.0 | 0.0 | 0.00 | 0.00 | 0.00 | 91 | 1014.4 |
| 20260904101026 | 24 | 119 | 0.0 | 0.0 | 0.00 | 0.00 | 0.00 | 88 | 1014.4 |
| 20260904091022 | 24 | 118 | 0.0 | 0.0 | 0.00 | 0.00 | 0.00 | 86 | 1014.6 |
| 20260904081014 | 25 | 119 | 0.0 | 0.0 | 0.00 | 0.00 | 0.00 | 84 | 1014.3 |
| 20260904071041 | 26 | 113 | 0.0 | 0.0 | 0.00 | 0.00 | 0.00 | 80 | 1014.0 |
| 20260904061029 | 27 | 360 | 3.2 | 3.2 | 0.00 | 0.00 | 0.00 | 79 | 1014.9 |
| 20260904051026 | 27 | 190 | 3.2 | 3.2 | 0.00 | 0.00 | 0.00 | 80 | 1014.3 |
| 20260904041025 | 28 | 166 | 0.0 | 1.6 | 0.00 | 0.00 | 0.00 | 78 | 1014.5 |
| 20260904031025 | 28 | 162 | 0.0 | 0.0 | 0.00 | 0.00 | 0.00 | 78 | 1014.8 |
| 20260904021022 | 28 | 142 | 0.0 | 1.6 | 0.00 | 0.00 | 0.00 | 79 | 1014.5 |
| 20260904011033 | 28 | 125 | 0.0 | 0.0 | 0.00 | 0.00 | 0.00 | 80 | 1015.2 |
| 20260904001024 | 30 | 125 | 0.0 | 0.0 | 0.00 | 0.00 | 0.00 | 79 | 1015.0 |
| 20260903231025 | 31 | 125 | 0.0 | 0.0 | 0.00 | 0.00 | 0.00 | 74 | 1014.4 |
| 20260903221040 | 31 | 126 | 0.0 | 0.0 | 0.00 | 0.00 | 0.00 | 67 | 1014.1 |
| 20260903211028 | 34 | 144 | 4.8 | 4.8 | 0.00 | 0.00 | 0.00 | 57 | 1014.3 |
| 20260903201031 | 34 | 181 | 0.0 | 0.0 | 0.00 | 0.00 | 0.00 | 60 | 1014.9 |
| 20260903191015 | 35 | 226 | 0.0 | 0.0 | 0.00 | 0.00 | 0.00 | 62 | 1015.5 |
| 20260903181027 | 35 | 229 | 0.0 | 0.0 | 0.00 | 0.00 | 0.00 | 62 | 1016.5 |